SCP
0 0 0 0 0 0 0 0 0 0 0 0 0 0 0 0 0 0 0 0 0 0 0 0 0 0 0 0 0 0 0 0 0 0 0 0 0 0 0 0 0 0 0 0 0 0 0 0 0
0 0 0 0 0 0 0 0 0 0 0 0 0 0 0 0 0 0 0 0 0 0 0 0 0 0 0 0 0 0 0 0 0 0 0 0 0 0 0 0 0 0 0 0 0 0 0 0 0
0 0 0 0 0 0 0 0 0 0 0 0 0 0 0 0 0 0 0 0 0 0 0 0 0 0 0 0 0 0 0 0 0 0 0 0 0 0 0 0 0 0 0 0 0 0 0 0 0
0 0 0 0 0 0 0 0 0 0 0 0 0 0 0 0 0 0 0 0 0 0 0 0 0 0 0 0 0 0 0 0 0 0 0 0 0 0 0 0 0 0 0 0 0 0 0 0 0
0 0 0 0 0 0 0 0 0 0 0 0 0 0 0 0 0 0 0 0 0 0 0 0 0 0 0 0 0 0 0 0 0 0 0 0 0 0 0 0 0 0 0 0 0 0 0 0 0
0 0 0 0 0 0 0 0 0 0 0 0 0 0 0 0 0 0 0 0 0 0 0 0 0 0 0 0 0 0 0 0 0 0 0 0 0 0 0 0 0 0 0 0 0 0 0 0 0
0 0 0 0 0 0 0 0 0 0 0 0 0 0 0 0 0 0 0 0 0 0 0 0 0 0 0 0 0 0 0 0 0 0 0 0 0 0 0 0 0 0 0 0 0 0 0 0 0
0 0 0 0 0 0 0 0 0 0 0 0 0 0 0 0 0 0 0 0 0 0 0 0 0 0 0 0 0 0 0 0 0 0 0 0 0 0 0 0 0 0 0 0 0 0 0 0 0
0 0 0 0 0 0 0 0 0 0 0 0 0 0 0 0 0 0 0 0 0 0 0 0 0 0 0 0 0 0 0 0 0 0 0 0 0 0 0 0 0 0 0 0 0 0 0 0 0
0 0 0 0 0 0 0 0 0 0 0 0 0 0 0 0 0 0 0 0 0 0 0 0 0 0 0 0 0 0 0 0 0 0 0 0 0 0 0 0 0 0 0 0 0 0 0 0 0
0 0 0 0 0 0 0 0 0 0 0 0 0 0 0 0 0 0 0 0 0 0 0 0 0 0 0 0 0 0 0 0 0 -0 -0 -0 0 0 0 0 0 0 0 0 0 0 0 0 0
0 0 0 0 0 0 0 0 0 0 0 0 0 0 0 0 0 0 0 0 0 0 0 0 0 0 0 0 0 0 0 0 0 -0 -0 0 0 0 0 0 0 0 0 0 0 0 0 0 0
0 0 0 0 0 0 0 0 0 0 0 0 0 0 0 0 0 0 0 0 0 0 0 0 0 0 0 0 0 0 0 0 0 0 0 0 0 0 0 0 0 0 0 0 0 0 0 0 0
0 0 0 0 0 0 0 0 0 0 0 0 0 0 0 0 0 0 0 0 0 0 0 0 0 0 0 0 0 0 0 0 0 0 0 0 0 0 0 0 0 0 0 0 0 0 0 0 0
0 0 0 0 0 0 0 0 0 0 0 0 0 0 0 0 0 0 0 0 0 0 0 0 0 0 0 0 0 0 0 0 0 0 0 0 0 0 0 0 0 0 0 0 0 0 0 0 0
0 0 0 0 0 0 0 0 0 0 0 0 0 0 0 0 0 0 0 0 0 0 0 0 0 0 0 0 0 0 0 0 0 0 0 0 0 0 0 0 0 0 0 0 0 0 0 0 0
0 0 0 0 0 0 0 0 0 0 0 0 0 0 0 0 0 0 0 0 0 0 0 0 0 0 0 0 0 0 0 0 0 0 0 0 0 0 0 0 0 0 0 0 0 0 0 0 0
0 0 0 0 0 0 0 0 0 0 0 0 0 0 0 0 0 0 0 0 0 0 0 0 0 0 0 0 0 0 0 0 0 0 0 0 0 0 0 0 0 0 0 0 0 0 0 0 0
0 0 0 0 0 0 0 0 0 0 0 0 0 0 0 0 0 0 0 0 0 0 0 0 0 0 0 0 0 0 0 0 0 0 0 0 0 0 0 0 0 0 0 0 0 0 0 0 0
0 0 0 0 0 0 0 0 0 0 0 0 0 0 0 0 0 0 0 0 0 0 0 0 0 0 0 0 0 0 0 0 0 0 0 0 0 0 0 0 0 0 0 0 0 0 0 0 0
0 0 0 0 0 0 0 0 0 0 0 0 0 0 0 0 0 0 0 0 0 0 0 0 0 0 0 0 0 0 0 0 0 0 0 0 0 0 0 0 0 0 0 0 0 0 0 0 0
0 0 0 0 0 0 0 0 0 0 0 0 0 0 0 0 0 0 0 0 0 0 0 0 0 0 0 0 0 0 0 0 0 0 0 0 0 0 0 0 0 0 0 0 0 0 0 0 0
0 0 0 0 0 0 0 0 0 0 0 0 0 0 0 0 0 0 0 0 0 0 0 0 0 0 0 0 0 0 0 0 0 0 0 0 0 0 0 0 0 0 0 0 0 0 0 0 0
0 0 0 0 0 0 0 0 0 0 0 0 0 0 0 0 0 0 0 0 0 0 0 0 0 0 0 0 0 0 0 0 0 0 0 0 0 0 0 0 0 0 0 0 0 0 0 0 0
0 0 0 0 0 0 0 0 0 0 0 0 0 0 0 0 0 0 0 0 0 0 0 0 0 0 0 0 0 0 0 0 0 0 0 0 0 0 0 0 0 0 0 0 0 0 0 0 0
0 0 0 0 0 0 0 0 0 0 0 0 0 0 0 0 0 0 0 0 0 0 0 0 0 0 0 0 0 0 0 0 0 0 0 0 0 0 0 0 0 0 0 0 0 0 0 0 0
0 0 0 0 0 0 0 0 0 0 0 0 0 0 0 0 0 0 0 0 0 0 0 0 0 0 0 0 0 0 0 0 0 0 0 0 0 0 0 0 0 0 0 0 0 0 0 0 0
0 0 0 0 0 0 0 0 0 0 0 0 0 0 0 0 0 0 0 0 0 0 0 0 0 0 0 0 0 0 0 0 0 0 0 0 0 0 0 0 0 0 0 0 0 0 0 0 -0
0 0 0 0 0 0 0 0 0 0 0 0 0 0 0 0 0 0 0 0 0 0 0 0 0 0 0 0 0 0 0 0 0 0 0 0 0 0 0 0 0 0 0 0 0 0 0 0 0
0 0 0 0 0 0 0 0 0 0 0 0 0 0 0 0 0 0 0 0 0 0 0 0 0 0 0 0 0 0 0 0 0 0 0 0 0 0 0 0 0 0 0 0 0 0 0 0 0
Wind_Speed
5 3 2 3 4 4 1 2 1 2 3 4 7 9 8 6 5 7 4 8 10 8 6 9 13 13 13 13 13 12 12 12 12 13 12 12 12 11 10 10 10 9 9 9 8 8 7 7 7
2 1 3 4 4 2 1 1 2 4 6 6 8 8 8 7 7 8 5 9 10 9 7 8 13 13 13 13 13 12 12 12 12 12 11 11 11 10 9 9 9 8 8 8 7 7 6 6 6
2 1 3 3 2 3 3 2 3 5 5 4 6 6 6 5 6 5 8 12 10 8 7 9 14 13 13 12 12 12 12 12 11 11 10 10 9 8 8 8 8 7 7 7 6 6 6 5 5
2 3 4 3 1 2 4 4 4 6 6 6 7 7 5 3 4 8 12 12 11 8 7 9 14 13 13 12 12 12 12 11 11 10 9 8 8 7 7 7 7 7 6 6 5 4 4 4 4
3 4 4 2 0 0 1 2 4 6 5 6 9 7 4 3 10 14 12 12 11 8 6 8 13 13 13 12 12 12 11 11 10 9 8 7 7 7 6 6 6 6 5 5 4 3 3 3 3
4 4 3 1 1 1 1 2 6 9 8 8 9 7 3 4 10 11 11 10 10 9 7 7 12 13 12 12 11 11 10 9 8 7 6 6 5 5 5 5 4 4 3 3 2 1 1 2 2
4 3 1 1 2 2 2 3 4 6 7 5 6 7 4 4 7 10 10 9 9 8 7 5 5 8 11 11 11 9 9 8 7 6 5 5 4 4 4 3 3 3 2 1 1 0 1 2 3
4 4 2 1 2 1 1 2 5 7 6 6 5 8 6 6 7 9 9 8 8 6 5 5 4 4 4 5 8 8 7 6 5 4 3 3 3 3 3 3 2 2 1 0 1 2 2 3 3
4 5 1 0 2 1 1 4 4 5 7 4 4 5 9 10 11 10 9 7 6 6 4 4 4 4 3 3 5 5 5 4 3 2 1 1 0 0 1 3 3 2 1 1 2 3 3 4 3
4 3 1 1 2 2 2 4 4 6 8 7 7 8 11 10 11 11 9 8 7 6 5 4 4 4 3 3 2 1 1 0 1 1 0 0 0 1 1 2 3 2 2 2 3 4 4 3 2
3 3 1 1 1 3 3 4 4 9 6 8 12 13 11 10 9 10 9 8 8 7 6 5 4 4 3 1 2 1 1 0 1 0 0 0 1 1 1 1 2 2 2 2 2 2 2 1 1
2 0 1 1 2 3 3 4 5 5 6 9 12 13 11 10 9 8 8 7 7 6 5 5 4 4 3 3 2 2 1 1 1 1 1 1 1 1 0 1 1 1 1 1 1 1 1 1 1
2 1 0 2 3 4 5 5 6 4 7 10 12 11 10 9 7 6 6 6 7 7 5 5 5 5 3 3 2 2 1 1 1 1 2 2 2 1 1 1 1 1 1 1 1 1 2 2 2
1 2 1 2 2 2 5 4 6 5 8 10 11 9 9 9 8 7 6 6 6 6 6 6 6 5 4 3 2 2 2 1 2 2 2 3 2 2 2 2 2 2 1 1 2 2 2 1 2
1 3 3 1 1 1 4 4 3 6 8 9 9 8 8 7 8 8 7 6 6 7 6 7 7 5 5 3 2 2 2 2 2 2 3 3 3 3 3 3 3 2 2 3 3 3 3 3 3
3 3 1 2 0 1 5 2 2 5 9 8 6 6 6 6 7 7 7 6 6 7 6 6 7 6 4 3 3 2 2 3 2 2 3 3 4 4 3 3 2 2 3 3 3 3 3 3 3
3 1 1 2 2 2 4 4 4 4 8 8 7 6 6 6 6 6 7 7 7 7 7 6 5 5 4 3 3 3 3 3 2 2 3 3 4 4 3 3 2 3 3 3 3 3 2 2 2
2 1 1 2 1 3 4 4 4 5 7 8 7 6 6 7 8 8 7 7 6 7 7 6 5 5 5 3 3 3 4 3 2 2 3 3 3 4 4 3 3 3 3 3 3 3 3 2 2
2 2 1 1 2 2 3 4 5 5 5 6 7 7 7 7 7 7 7 7 7 6 7 6 6 4 4 3 3 3 2 1 2 2 3 3 3 4 4 3 3 3 3 3 3 2 3 3 2
3 2 1 0 0 2 3 3 5 6 7 8 9 9 9 7 7 7 7 7 7 7 7 6 6 5 4 3 3 2 2 1 1 1 3 3 4 3 3 4 3 3 3 4 4 3 2 2 3
3 4 4 3 0 1 2 2 4 5 4 6 7 8 9 11 11 10 9 8 8 8 8 7 6 6 5 4 3 3 3 3 3 3 2 2 3 4 3 3 3 3 3 2 3 3 3 2 3
3 3 4 4 2 2 2 2 5 6 6 7 8 8 9 9 10 10 10 9 9 8 7 7 7 6 5 5 5 5 3 2 1 1 1 2 3 4 4 3 3 3 3 2 2 3 2 3 2
3 3 3 3 2 0 1 2 6 3 7 9 9 11 10 10 11 11 11 10 9 9 8 8 7 6 5 5 6 6 4 2 1 1 2 2 3 3 4 4 3 3 2 3 3 3 3 2 2
2 3 3 3 3 2 5 4 6 6 10 10 10 10 10 11 11 11 10 9 8 7 7 7 7 5 5 5 6 6 5 4 3 2 2 1 1 2 3 3 3 3 3 3 3 3 4 3 3
4 5 3 3 2 5 4 4 8 8 9 11 12 11 10 10 10 11 11 10 9 9 8 8 8 6 5 6 5 5 5 5 4 3 3 2 1 1 1 2 2 2 2 3 3 4 4 4 4
3 6 5 3 3 4 1 5 7 6 6 7 9 9 9 10 10 11 12 11 11 10 9 9 8 6 6 6 5 4 4 3 3 3 3 3 2 1 1 2 3 3 3 4 4 4 3 4 4
4 3 5 4 1 2 4 4 5 2 3 6 8 9 10 10 11 11 11 11 11 10 10 10 9 7 6 6 5 4 4 4 3 3 3 2 2 2 3 3 4 4 4 4 4 4 3 4 4
6 6 4 3 2 2 4 3 4 2 4 6 8 10 10 9 10 10 10 10 10 10 8 8 8 8 7 6 5 5 4 4 4 4 4 4 3 3 4 4 4 4 4 4 5 4 4 5 4
3 3 4 3 3 3 2 6 5 7 7 9 10 10 10 11 11 10 9 9 9 8 8 8 8 7 6 6 5 5 4 4 4 4 4 4 3 4 4 4 4 4 4 4 5 4 4 5 4
5 6 6 4 3 3 2 7 5 5 5 7 8 8 9 10 9 9 9 8 8 9 9 9 8 8 7 6 6 5 5 5 4 4 4 4 5 4 4 4 4 4 4 4 4 4 4 5 4
Wind_Direction
304 330 71 61 54 53 53 288 174 87 68 52 74 84 83 63 87 125 145 137 128 128 124 122 120 117 115 113 112 110 106 103 99 96 95 92 90 88 86 84 85 84 82 82 80 80 80 77 73
318 349 61 60 79 80 323 295 97 101 136 126 77 73 75 71 78 105 123 134 131 130 128 127 123 118 115 115 115 114 109 105 102 97 96 94 91 88 88 87 86 85 83 82 79 77 75 74 69
303 102 76 69 99 161 169 211 136 103 107 99 80 55 65 91 98 110 140 138 130 125 122 127 123 119 118 117 116 115 113 109 105 100 98 96 93 90 89 92 90 88 87 87 81 75 68 63 57
55 46 58 73 139 216 169 191 152 109 67 63 93 69 58 82 106 130 138 133 125 121 120 126 124 122 121 119 117 118 114 114 111 106 104 103 100 97 96 96 96 93 91 90 85 79 68 58 46
70 74 58 52 250 80 151 165 125 103 83 78 90 88 65 44 114 130 136 133 128 124 123 127 128 127 124 122 119 119 120 118 114 111 109 106 102 101 101 99 97 95 95 95 90 80 61 48 32
59 67 79 93 102 93 100 83 90 96 105 103 97 100 85 112 121 132 135 131 129 130 130 130 133 131 128 126 124 124 124 123 119 118 116 111 109 109 111 114 113 109 103 97 93 76 26 5 358
99 89 109 168 113 88 126 125 110 115 115 113 114 101 113 127 132 134 131 126 125 127 125 126 132 132 134 134 133 131 131 131 130 129 128 126 129 131 134 139 142 136 125 113 95 5 320 329 334
120 95 49 29 111 110 143 107 123 119 107 115 110 121 150 160 135 122 118 121 124 127 127 128 126 128 132 135 141 143 143 140 138 141 146 147 145 152 160 170 179 160 139 122 303 303 304 312 320
85 76 62 9 124 148 96 94 83 79 94 75 76 117 143 140 122 117 117 119 127 135 139 138 138 144 146 152 157 150 146 142 138 137 152 108 58 276 217 217 220 217 243 286 300 302 309 319 325
80 103 206 210 152 145 96 98 109 93 87 82 85 103 125 128 128 132 140 144 146 152 159 158 156 159 162 166 132 115 105 71 53 29 0 44 185 276 252 249 247 275 286 303 316 318 321 341 341
110 152 205 34 99 107 89 75 77 109 114 144 142 142 138 132 135 144 152 154 159 159 160 160 162 163 162 140 125 102 69 43 28 69 162 104 53 17 2 345 341 342 341 345 344 356 357 0 355
102 237 206 143 91 93 96 95 84 111 154 158 147 145 144 143 147 154 153 155 149 148 158 155 146 140 136 123 121 122 118 81 50 30 81 94 78 53 39 12 341 353 3 360 7 22 17 20 20
101 189 93 107 85 92 88 96 104 113 131 136 137 139 146 147 148 150 145 141 138 144 145 141 132 129 122 107 106 109 102 85 66 44 63 98 99 82 63 25 35 25 36 51 43 49 43 33 31
162 122 94 88 87 77 96 90 97 133 133 136 141 146 149 149 150 145 142 143 144 141 137 130 124 121 112 104 99 97 93 83 63 55 53 74 86 83 70 56 46 32 38 53 64 62 59 39 39
82 87 40 13 90 119 88 53 121 151 138 142 149 150 149 151 150 154 160 158 153 142 137 131 127 118 112 107 101 93 88 80 68 57 56 66 78 80 78 65 48 29 41 56 54 45 48 47 42
35 62 52 309 55 142 114 147 161 155 145 151 156 155 155 160 161 161 156 155 152 141 134 131 128 119 114 109 99 89 83 75 62 58 58 60 70 81 76 65 48 38 50 55 61 46 46 38 36
23 89 191 306 295 145 129 165 180 171 157 164 169 167 162 160 164 161 156 155 154 144 135 128 123 122 122 114 100 89 80 66 52 57 55 52 59 69 75 65 49 52 54 45 53 48 51 43 29
200 197 189 221 261 126 143 178 184 179 167 173 174 174 170 169 178 170 161 155 148 141 137 137 131 125 116 98 83 67 57 44 38 56 59 61 61 69 74 65 49 54 58 42 44 50 37 45 37
177 171 201 252 227 136 158 178 193 191 179 184 182 178 180 182 181 167 158 148 141 140 142 142 133 129 120 108 102 96 81 50 37 46 57 61 63 67 74 70 57 55 61 52 49 55 42 26 33
182 180 204 323 266 145 155 202 208 206 197 194 187 186 183 170 169 169 163 157 154 155 152 142 142 142 137 131 131 132 128 104 83 44 41 49 61 61 74 79 72 65 65 51 47 58 55 24 30
204 190 192 180 158 104 140 267 225 228 203 199 191 188 183 176 174 173 170 169 162 162 162 156 154 146 140 129 109 90 65 44 38 36 25 22 56 64 67 76 77 70 74 69 58 66 77 51 17
221 211 174 168 143 241 187 236 249 216 215 208 202 191 188 184 178 174 173 172 172 173 164 155 155 148 144 135 129 131 131 136 175 150 54 32 49 63 64 70 72 69 65 64 56 69 78 87 44
202 183 158 172 147 189 234 199 269 207 216 218 209 198 192 187 180 178 176 173 171 166 158 155 150 146 144 141 144 140 138 149 140 94 76 49 36 50 62 70 73 69 63 62 56 60 63 75 83
143 69 47 59 80 269 220 191 262 215 209 204 203 199 191 185 180 177 173 167 164 158 151 150 146 147 146 141 143 146 146 140 128 119 106 68 34 32 47 66 70 70 67 65 63 68 68 68 72
88 86 44 2 357 257 222 196 248 230 210 196 190 194 188 181 176 171 168 167 165 160 157 154 150 151 151 145 151 156 153 147 148 149 147 135 101 57 47 63 70 71 75 71 70 71 64 63 69
164 139 156 191 231 281 267 229 258 250 203 185 179 182 178 176 175 175 175 170 168 165 160 158 157 156 155 155 163 159 153 145 148 153 153 156 154 150 110 88 81 75 73 72 71 70 67 66 65
143 173 171 149 232 273 276 281 308 23 133 160 168 172 180 177 176 176 175 171 168 166 166 166 161 155 158 161 159 151 148 141 142 144 139 142 136 119 103 94 86 75 71 70 75 70 63 69 64
156 155 113 129 185 265 290 273 250 236 205 183 175 180 184 179 177 174 175 172 169 168 167 163 158 157 161 160 162 151 148 145 135 123 124 126 121 107 104 92 85 78 70 69 73 70 65 72 60
152 156 140 146 176 174 259 270 228 202 197 191 190 186 183 180 178 176 176 174 166 160 159 161 159 153 157 158 153 142 143 135 128 125 130 127 117 112 109 104 95 86 75 72 76 72 73 75 62
177 182 155 162 215 188 209 269 267 208 195 189 190 187 181 179 176 173 169 164 162 162 164 166 165 162 164 160 149 145 139 129 126 128 128 121 116 112 113 107 101 92 82 78 82 81 77 78 71